Location: Newark
(9.4667°S, 159.8167°E)
Time: 08:57:55
(UTC+00:00)

Vanguard 1 - Visible Passes

Search period start: 14 November 2019 00:00
Search period end: 24 November 2019 00:00
Orbit: 652 x 3831 km, 34.2° (Epoch: 13 November)

Date Brightness Start Highest point End Pass type
(mag) Time Alt. Az. Time Alt. Az. Time Alt. Az.
14 Nov 11.3 09:04:15 10° NNW 09:12:09 51° NE 09:26:44 10° ESE visible
14 Nov 12.3 11:24:07 10° WNW 11:37:04 57° S 11:55:49 10° SE visible
14 Nov 13.5 13:49:16 10° WSW 14:05:03 35° S 14:25:41 10° SE visible
14 Nov 13.8 16:17:58 10° SW 16:38:34 37° SSE 16:57:11 10° ESE visible
15 Nov 11.2 09:24:46 10° NW 09:33:02 72° NE 09:48:58 10° ESE visible
15 Nov 12.6 11:45:48 10° W 11:57:39 48° SSW 12:17:41 10° SE visible
15 Nov 13.6 14:11:54 10° WSW 14:28:19 34° S 14:48:37 10° ESE visible
15 Nov 13.7 16:40:09 10° SW 17:01:42 42° SSE 17:20:02 10° E visible
16 Nov 11.8 07:28:49 10° N 07:33:41 19° NE 07:40:31 10° E visible
16 Nov 11.3 09:45:35 10° WNW 09:54:10 86° SW 10:10:55 10° SE visible
16 Nov 12.9 12:07:47 10° W 12:20:04 41° SSW 12:39:45 10° SE visible
16 Nov 13.7 14:34:29 10° SW 14:51:43 33° S 15:11:50 10° ESE visible
16 Nov 13.6 17:02:05 10° SW 17:24:32 48° SSE 17:42:35 10° E visible
17 Nov 11.4 07:48:20 10° NNW 07:54:14 32° NE 08:03:51 10° ESE visible
17 Nov 11.7 10:06:42 10° WNW 10:15:36 66° SSW 10:32:42 10° SE visible
17 Nov 13.2 12:30:00 10° WSW 12:42:45 36° S 13:02:07 10° SE visible
17 Nov 13.7 14:56:52 10° SW 15:15:07 35° S 15:35:13 10° ESE visible
17 Nov 13.4 17:23:50 10° SW 17:47:05 56° SSE 18:04:48 10° ENE visible
18 Nov 10.9 08:08:28 10° NNW 08:14:52 49° NE 08:26:23 10° ESE visible
18 Nov 12.1 10:28:05 10° W 10:37:21 52° SSW 10:54:27 10° SE visible
18 Nov 13.4 12:52:22 10° WSW 13:05:41 33° S 13:24:53 10° SE visible
18 Nov 13.7 15:19:01 10° SW 15:38:22 38° SSE 15:58:34 10° ESE visible
18 Nov 13.2 17:45:29 10° SW 18:09:19 67° SSE 18:26:40 10° ENE visible
19 Nov 10.8 08:28:59 10° NW 08:35:42 73° NE 08:48:28 10° ESE visible
19 Nov 12.5 10:49:46 10° W 10:59:23 42° SSW 11:16:15 10° SE visible
19 Nov 13.6 13:14:46 10° WSW 13:28:49 31° S 13:48:05 10° ESE visible
19 Nov 13.6 15:40:54 10° SW 16:01:23 43° SSE 16:21:41 10° E visible
19 Nov 13.0 18:07:09 10° SW 18:31:16 79° SE 18:48:11 10° ENE visible
20 Nov 11.0 08:49:48 10° WNW 08:56:47 80° SW 09:10:14 10° SE visible
20 Nov 12.9 11:11:42 10° WSW 11:21:41 35° SSW 11:38:17 10° SE visible
20 Nov 13.6 13:37:02 10° SW 13:52:00 32° S 14:11:39 10° ESE visible
20 Nov 13.5 16:02:34 10° SW 16:24:07 49° SSE 16:44:27 10° E visible
20 Nov 12.8 18:28:54 10° SW 18:52:57 86° NW 19:09:23 10° NE visible
21 Nov 11.5 09:10:57 10° WNW 09:18:11 59° SSW 09:31:51 10° SE visible
21 Nov 13.1 11:33:50 10° WSW 11:44:13 31° S 12:00:40 10° SE visible
21 Nov 13.6 13:59:05 10° SW 14:15:11 34° SSE 14:35:24 10° ESE visible
21 Nov 13.3 16:24:06 10° SW 16:46:35 58° SSE 17:06:49 10° ENE visible
22 Nov 12.0 09:32:23 10° W 09:39:51 44° SSW 09:53:25 10° SE visible
22 Nov 13.3 11:56:04 10° WSW 12:06:58 29° S 12:23:31 10° SE visible
22 Nov 13.6 14:20:53 10° SW 14:38:12 37° SSE 14:59:04 10° E visible
22 Nov 13.1 16:45:34 10° SW 17:08:47 69° SSE 17:28:48 10° ENE visible
23 Nov 10.3 07:33:18 10° NW 07:38:53 76° NE 07:48:47 10° ESE visible
23 Nov 12.5 09:54:05 10° W 10:01:48 35° SSW 10:15:04 10° SE visible
23 Nov 13.5 12:18:14 10° SW 12:29:52 28° S 12:46:54 10° ESE visible
23 Nov 13.5 14:42:28 10° SW 15:01:00 43° SSE 15:22:28 10° E visible
23 Nov 13.0 17:07:04 10° SW 17:30:43 81° SE 17:50:25 10° ENE visible
